Overview Statistics Trail Chart Weather Telemetry Raw packets
 

This is the latest recevied weather packets stored in our database for station/object KR0L-13. If no packets are shown the sender has not sent any weather packets the latest 10 day(s).

<< 20 21 22 23 24 25 26 >>
Time Temp. Humidity Pressure Rain* Wind** Luminosity Snow
1788353120 26.11° C 61% 1015.6 hPa 0 mm - - -
1788352520 26.11° C 61% 1015.5 hPa 0 mm - - -
1788351920 25.56° C 62% 1015.6 hPa 0 mm - - -
1788351320 25.56° C 62% 1015.5 hPa 0 mm - - -
1788350720 25.56° C 62% 1015.3 hPa 0 mm - - -
1788350120 25.56° C 61% 1015.4 hPa 0 mm - - -
1788349520 26.11° C 60% 1015.4 hPa 0 mm - - -
1788348920 26.11° C 60% 1015.4 hPa 0 mm - - -
1788348320 26.11° C 60% 1015.3 hPa 0 mm - - -
1788347720 26.11° C 60% 1015.3 hPa 0 mm - - -
1788347120 26.11° C 59% 1015.2 hPa 0 mm - - -
1788346520 26.11° C 58% 1015.4 hPa 0 mm - - -
1788345920 26.67° C 58% 1015.2 hPa 0 mm - - -
1788345320 26.67° C 58% 1015.2 hPa 0 mm - - -
1788344720 26.67° C 57% 1015.2 hPa 0 mm - - -
1788344120 26.67° C 57% 1015.2 hPa 0 mm - - -
1788343520 27.22° C 56% 1015.3 hPa 0 mm - - -
1788342920 27.22° C 56% 1015.4 hPa 0 mm - - -
1788342320 26.67° C 57% 1015.2 hPa 0 mm - - -
1788341720 26.11° C 59% 1015.2 hPa 0 mm - - -
1788341120 25.56° C 61% 1014.9 hPa 0 mm - - -
1788340520 24.44° C 63% 1014.8 hPa 0 mm - - -
1788339920 23.89° C 64% 1014.8 hPa 0 mm - - -
1788339320 23.89° C 64% 1014.7 hPa 0 mm - - -
1788338720 23.89° C 64% 1014.7 hPa 0 mm - - -

* Rain latest hour (hover to see other rain measurements)
** Current wind speed in m/s (hover to see current wind gust speed)